Location: Alafon
(8.4500°N, 4.2333°E)
Time: 20:02:07
(UTC+00:00)

Vanguard 2 - Pass Details

Date: 03 August 2021
Orbit: 553 x 2937 km, 32.9° (Epoch: 27 September)

Event Time Altitude Azimuth Distance (km) Brightness Sun altitude
Rises 20:24:57 0° 206° (SSW) 5,945 12.1 -33.4°
Enters shadow 20:31:21 - 186° (S) 4,640 11.3 -34.8°
Reaches altitude 10° 20:34:43 10° 170° (S) 4,109 - -35.5°
Maximum altitude 20:36:07 10° 163° (SSE) 3,949 - -35.8°
Drops below altitude 10° 20:37:27 10° 155° (SSE) 3,840 - -36.1°
Sets 20:44:14 0° 115° (ESE) 4,100 - -37.6°
